Location: Rancho Del Sol Observatory
(38.7214°N, 120.6350°W)
Time: 18:02:23
(UTC-08:00)

Courier 1B Rocket - Pass Details

Date: 27 January 2020
Orbit: 920 x 1202 km, 28.2° (Epoch: 25 February)

Event Time Altitude Azimuth Distance (km) Brightness Sun altitude
Rises 13:25:53 0° 258° (WSW) 3,906 8.5 30.5°
Reaches altitude 10° 13:29:01 10° 249° (WSW) 2,901 8.2 30.3°
Maximum altitude 13:35:08 32° 189° (S) 1,669 8.5 29.9°
Drops below altitude 10° 13:40:53 10° 128° (SE) 2,721 7.6 29.4°
Sets 13:43:44 0° 118° (ESE) 3,631 8.0 29.2°
